Flag for Germany

Past Weather in Mettmann, North Rhine-Westphalia, Germany — Yesterday and Last 2 Weeks

Now
77 °F

Passing clouds.


Feels Like: 79 °F
Forecast: 78 / 66 °F
Wind: 5 mph from West

Location: Duesseldorf
Current Time: Aug 14, 2020 at 11:27:34 am
Latest Report: Aug 14, 2020 at 10:50 am
Visibility: N/A
Pressure29.92 "Hg
Humidity: 65%
Dew Point: 64 °F
Location of MettmannLocation

Past Weather in Mettmann — Graph

°F

Mettmann Temperature Yesterday

Maximum temperature yesterday: 91 °F (at 3:20 pm)
Minimum temperature yesterday: 70 °F (at 2:50 am)
Average temperature yesterday: 77 °F

High & Low Weather Summary for the Past Weeks

 TemperatureHumidityPressure
High99 °F (Aug 8, 4:20 pm)100% (Aug 14, 12:50 am)30.15 "Hg (Aug 14, 12:50 am)
Low52 °F (Aug 3, 4:20 am)20% (Aug 8, 4:50 pm)29.83 "Hg (Aug 13, 4:20 pm)
Average76 °F54%29.99 "Hg
* Reported Jul 30 10:20 am — Aug 14 10:20 am, Mettmann. Weather by CustomWeather, © 2020

Note: Actual official high and low records may vary slightly from our data, if they occured in-between our weather recording intervals... More about our weather records

Mettmann Weather History for the Previous 24 Hours

Scroll right to see more
 ConditionsComfort  
Time TempWeatherWind HumidityBarometerVisibility
10:20 am
Fri, Aug 14
75 °FPassing clouds.7 mph69%29.92 "HgN/A
9:50 am73 °FSunny.8 mph74%29.92 "Hg10 mi
9:20 am73 °FPassing clouds.7 mph69%29.92 "HgN/A
8:50 am72 °FSunny.6 mph78%29.89 "Hg10 mi
8:20 am70 °FPassing clouds.6 mph83%29.89 "HgN/A
7:50 am70 °FPassing clouds.6 mph88%29.89 "HgN/A
7:20 am70 °FPassing clouds.2 mph94%29.89 "HgN/A
6:50 am70 °FPassing clouds.6 mph88%29.89 "HgN/A
6:20 am68 °FPassing clouds.2 mph94%29.89 "HgN/A
5:50 am68 °FPassing clouds.5 mph100%29.89 "HgN/A
5:20 am68 °FPassing clouds.5 mph100%29.89 "HgN/A
4:50 am68 °FClear.3 mph100%29.86 "Hg10 mi
4:20 am68 °FClear.2 mph100%29.86 "Hg10 mi
3:50 am68 °FClear.2 mph100%29.89 "Hg10 mi
3:20 am68 °FClear.3 mph94%29.89 "Hg10 mi
2:50 am68 °FClear.1 mph100%29.89 "Hg10 mi
2:20 am70 °FClear.2 mph94%29.89 "Hg10 mi
1:50 am70 °FClear.5 mph94%29.89 "Hg10 mi
1:20 am70 °FClear.1 mph94%29.89 "Hg10 mi
12:50 am68 °FClear.3 mph100%29.89 "Hg10 mi
12:20 am70 °FClear.3 mph94%29.89 "Hg10 mi
11:50 pm
Thu, Aug 13
70 °FPassing clouds.3 mph94%29.89 "HgN/A
11:20 pm70 °FClear.1 mph94%29.89 "Hg10 mi
10:50 pm70 °FPassing clouds.3 mph94%29.89 "HgN/A
10:20 pm70 °FClear.2 mph94%29.89 "Hg10 mi
9:50 pm70 °FClear.3 mph94%29.86 "Hg10 mi
9:20 pm70 °FClear.8 mph94%29.86 "Hg10 mi
8:50 pm73 °FSunny.1 mph83%29.89 "Hg10 mi
8:20 pm73 °FPassing clouds.12 mph83%29.89 "HgN/A
7:50 pm72 °FScattered showers. Passing clouds.7 mph94%29.83 "HgN/A
7:20 pm72 °FThundershowers. Passing clouds.5 mph88%29.86 "HgN/A
6:50 pm72 °FThunderstorms. Scattered clouds.10 mph83%29.86 "HgN/A
6:20 pm73 °FStrong thunderstorms. Partly sunny.16 mph78%29.86 "Hg1 mi
5:50 pm81 °FThunderstorms. Scattered clouds.18 mph54%29.86 "HgN/A
5:20 pm90 °FThundershowers. Passing clouds.5 mph41%29.83 "HgN/A
4:50 pm91 °FPassing clouds.9 mph38%29.83 "HgN/A
4:20 pm91 °FPassing clouds.5 mph38%29.83 "HgN/A
3:50 pm91 °FPassing clouds.8 mph36%29.86 "HgN/A
3:20 pm91 °FPassing clouds.7 mph36%29.86 "HgN/A
2:50 pm90 °FPassing clouds.8 mph38%29.86 "HgN/A
2:20 pm90 °FPassing clouds.8 mph38%29.86 "HgN/A
1:50 pm90 °FPassing clouds.9 mph41%29.86 "HgN/A
1:20 pm88 °FPassing clouds.9 mph46%29.89 "HgN/A
12:50 pm86 °FPassing clouds.8 mph49%29.86 "HgN/A
12:20 pm86 °FPassing clouds.7 mph49%29.89 "HgN/A
11:50 am82 °FPassing clouds.5 mph55%29.89 "HgN/A
11:20 am82 °FPassing clouds.7 mph55%29.89 "HgN/A
Weather by CustomWeather, © 2020

See weather overview